Regional Weather Roundup
Issued by NWS Newport/Morehead, NC

Current Version | Previous Version | Text Only | Print | Product List | Glossary Off
Versions: 1 2 3 4 5 6 7 8 9 10 11 12 13 14 15 16 17 18 19 20 21 22 23 24 25 26 27 28 29 30 31 32 33 34 35 36 37 38 39 40 41 42 43 44 45 46 47 48 49 50
000 ASUS42 KMHX 240225 RWRMHX WEATHER ROUNDUP FOR EASTERN NORTH CAROLINA NATIONAL WEATHER SERVICE NEWPORT/MOREHEAD CITY NC 1000 PM EDT TUE MAY 23 2017 NOTE: "FAIR" INDICATES FEW OR NO CLOUDS BELOW 12,000 FEET WITH NO SIGNIFICANT WEATHER AND/OR OBSTRUCTIONS TO VISIBILITY NCZ015>017-031-032-045>047-102-103-240300- NORTH COAST CITY SKY/WX TMP DP RH WIND PRES REMARKS EDENTON CLOUDY 73 69 88 SW10 29.67S ELIZABETH CITY LGT RAIN 68 67 96 NW5 29.66F KITTY HAWK MOCLDY 70 70 100 SW7G17 29.66F MANTEO CLOUDY 71 69 92 SW16 29.67F $$ NCZ045>047-081-094-103-104-240300- CENTRAL COAST CITY SKY/WX TMP DP RH WIND PRES REMARKS FRISCO CLOUDY 73 69 87 SW15G23 29.71F $$ NCZ095-097-098-100-101-240300- SOUTHERN COAST CITY SKY/WX TMP DP RH WIND PRES REMARKS BEAUFORT MOCLDY 74 73 97 SW15 29.71F CEDAR ISLAND NOT AVBL JACKSONVILLE LGT RAIN 70 70 100 SW7 29.70F PINEY ISLAND CLOUDY N/A N/A N/A S10 29.70F WILMINGTON LGT RAIN 70 68 93 S9 29.71F $$ NCZ011>013-027>030-043-044-078>080-089-090>093-098-240300- COASTAL PLAIN CITY SKY/WX TMP DP RH WIND PRES REMARKS AHOSKIE N/A 62 61 97 N6 29.69R CLINTON CLOUDY 68 68 100 CALM 29.70S ELIZABETHTOWN CLOUDY 70 70 100 S3 29.70S GOLDSBORO MOCLDY 70 70 100 SW10 29.67R GREENVILLE CLOUDY 70 70 100 SW9 29.70S HAVELOCK MOCLDY 71 68 90 S10 29.71F KENANSVILLE CLOUDY 70 68 94 SW7 29.70R KINSTON CLOUDY 70 68 94 SW6 29.69S NEW BERN LGT RAIN 69 69 100 S10 29.70F RICHLANDS LGT RAIN 70 70 100 S12 29.69F ROCKY MOUNT CLOUDY 66 66 100 CALM 29.69R WASHINGTON CLOUDY 69 67 95 SW8 29.68R WHITEVILLE CLOUDY 69 67 94 S5 29.69F $$ AMZ130-135-150-152-154-156-158-170-250-252-270-ANZ085-086-088-633-658-670-240300- MARINE OBSERVATIONS STATION/POSITION TIME TEMP WIND PRES WAVE SWELL AIR SEA DIR/SP/G HT/PER HT/PER (UTC) (F) (DEG/KT/KT) (MB) (FT/S) (FT/S) CHESAPEAKE LIGHT NOT AVBL 64 E VA BEACH 0150 69 66 210/ 16/ 19 1005.2 4/ 5 2/13 DUCK 0200 72 62 210/ 15/ 18 1003.9 2 E DUCK 0200 65 N/A 3/ 5 2/13 OREGON INLET 0200 72 69 210/ 18/ 22 1004.8 13E OREGON INLT 0148 65 N/A 6/ 7 3/11 HATTERAS CG 0200 72 74 220/ 12/ 17 1005.9 DIAMOND BUOY 0150 76 75 230/ 17/ 19 1006.3 6/ 7 2/11 CAPE LOOKOUT 0200 74 220/ 13/ 16 1006.2 BEAUFORT LAB 0200 73 73 220/ 7/ 11 1005.4 30 SE NEW RVR IN 0208 73 76 240/ 16/ 19 1007.5 30 SE NEW RVR IN 0213 76 N/A 6/ 6 27 SE WRIGHTSVLE 0208 73 75 220/ 14/ 21 1006.9 5 SE WRIGHTSVLE 0208 72 74 210/ 10/ 17 1005.8 225 S CAPE HAT 0150 77 76 190/ 17/ 21 1011.9 6/ 6 2/12 41 SE CHARLESTON 0210 78 78 220/ 19/ 27 1006.1 $$

USA.gov is the U.S. government's official web portal to all federal, state and local government web resources and services.